Station RSJT2 - 8777812 - Rincon del San Jose, TX Image indicating link to RSS feed of recent meteorological observations for station RSJT2


Conditions at RSJT2 as of
(7:00 pm CDT on 07/18/2024)
0000 GMT on 07/19/2024:
     

Click on the graph icon in the table below to see a time series plot of the last five days of that observation.

5-day plot - Wind Direction Wind Direction (WDIR):ESE ( 120 deg true )
5-day plot - Wind Speed Wind Speed (WSPD): 11.1 kts
5-day plot - Wind Gust Wind Gust (GST): 15.0 kts
5-day plot - Atmospheric Pressure Atmospheric Pressure (PRES):29.93 in
5-day plot - Pressure Tendency Pressure Tendency (PTDY):-0.02 in ( Falling )
5-day plot - Air Temperature Air Temperature (ATMP): 86.2 °F
5-day plot - Water Temperature Water Temperature (WTMP): 91.6 °F
5-day plot - Wind Speed at 10 Meters Wind Speed at 10 meters (WSPD10M): 11.7 kts
5-day plot - Wind Speed at 20 Meters Wind Speed at 20 meters (WSPD20M): 11.7 kts
5-day plot -  Wind Speed, Wind Gust and Atmospheric Pressure Combined plot of Wind Speed, Gust, and Air Pressure
Previous observations
TIME
(CDT)
5-day plot - Wind Direction
WDIR
 
5-day plot - Wind Speed
WSPD
kts
5-day plot - Wind Gust
GST
kts
5-day plot - Wave Height
WVHT
ft
5-day plot - Dominant Wave Period
DPD
sec
5-day plot - Average Wave Period
APD
sec
5-day plot - Mean Wave Direction
MWD
 
5-day plot - Atmospheric Pressure
PRES
in
5-day plot - Pressure Tendency
PTDY
in
5-day plot - Air Temperature
ATMP
°F
5-day plot - Water Temperature
WTMP
°F
5-day plot - Dew Point
DEWP
°F
5-day plot - Salinity
SAL
psu
5-day plot - Visibility
VIS
nmi
5-day plot - Tide (above MLLW)
TIDE
ft
2024-07-18 06:54 pm E 11.1 13.0----29.93- 86.4 91.2----
2024-07-18 06:48 pmESE 11.1 13.0----29.93- 86.5 91.4----
2024-07-18 06:42 pm E 11.1 13.0----29.92- 86.5 91.8----
2024-07-18 06:36 pmESE 11.1 13.0----29.92- 86.7 91.9----
2024-07-18 06:30 pm E 9.9 14.0----29.92- 86.9 92.1----
2024-07-18 06:24 pm E 9.9 13.0----29.92- 87.1 92.1----
2024-07-18 06:18 pm E 11.1 15.0----29.92- 87.3 92.1----
2024-07-18 06:12 pm E 12.0 15.0----29.92- 87.3 92.1----
2024-07-18 06:06 pmESE 11.1 15.0----29.92- 87.4 91.6----
2024-07-18 06:00 pmESE 11.1 14.0----29.92-0.04 87.6 91.6----
2024-07-18 05:54 pmESE 12.0 14.0----29.92- 87.4 91.6----
2024-07-18 05:48 pmESE 12.0 14.0----29.92- 87.8 91.6----
2024-07-18 05:42 pmESE 12.0 15.0----29.92- 87.8 91.6----
2024-07-18 05:36 pm E 12.0 15.9----29.92- 88.2 91.6----
2024-07-18 05:30 pmESE 11.1 14.0----29.92- 88.2 91.4----
2024-07-18 05:24 pmESE 11.1 14.0----29.92- 88.9 91.4----
2024-07-18 05:18 pm E 11.1 14.0----29.92- 88.5 91.4----
2024-07-18 05:12 pmESE 11.1 14.0----29.92- 88.5 91.4----
2024-07-18 05:06 pmESE 11.1 15.0----29.93- 88.5 91.4----
2024-07-18 05:00 pm E 12.0 15.0----29.93-0.06 88.5 91.4----
2024-07-18 04:54 pmESE 12.0 15.9----29.93- 88.3 91.4----
2024-07-18 04:48 pm E 9.9 15.9----29.93- 88.7 91.4----
2024-07-18 04:42 pmESE 12.0 15.9----29.93- 88.2 91.6----
2024-07-18 04:36 pmESE 14.0 15.0----29.93- 87.8 91.6----
2024-07-18 04:30 pm E 12.0 17.1----29.94- 88.2 91.6----
2024-07-18 04:24 pm E 12.0 14.0----29.94- 88.2 91.4----
2024-07-18 04:18 pm E 11.1 14.0----29.94- 88.5 91.0----
2024-07-18 04:12 pm E 12.0 14.0----29.94- 88.5 90.7----
2024-07-18 04:06 pm E 9.9 15.9----29.95- 88.9 90.5----
2024-07-18 04:00 pm E 11.1 14.0----29.95-0.06 89.2 90.3----
2024-07-18 03:54 pm E 11.1 15.0----29.95- 88.7 90.3----
2024-07-18 03:48 pm E 12.0 15.9----29.95- 88.7 90.5----
2024-07-18 03:42 pm E 12.0 14.0----29.96- 88.5 91.0----
2024-07-18 03:36 pm E 12.0 15.0----29.96- 88.9 91.6----
2024-07-18 03:30 pm E 12.0 15.0----29.96- 88.7 91.8----
2024-07-18 03:24 pm E 13.0 15.0----29.96- 88.5 92.1----
2024-07-18 03:18 pm E 11.1 15.9----29.96- 89.2 91.8----
2024-07-18 03:12 pm E 8.9 14.0----29.96- 89.6 91.9----
2024-07-18 03:06 pm E 11.1 14.0----29.96- 89.4 91.9----
2024-07-18 03:00 pm SE 6.0 11.1----29.96-0.06 89.1 91.9----
2024-07-18 02:54 pm E 8.0 9.9----29.96- 89.4 91.6----
2024-07-18 02:48 pmESE 7.0 9.9----29.97- 88.9 91.9----
2024-07-18 02:42 pm E 8.0 12.0----29.97- 88.9 91.8----
2024-07-18 02:36 pmESE 4.1 12.0----29.97- 88.9 91.4----
2024-07-18 02:30 pmESE 8.0 12.0----29.97- 89.2 91.8----
2024-07-18 02:24 pm E 6.0 8.9----29.97- 89.6 91.6----
2024-07-18 02:18 pm SE 8.0 9.9----29.98- 88.7 90.5----
2024-07-18 02:12 pmENE 6.0 8.9----29.98- 88.9 90.0----
2024-07-18 02:06 pmESE 4.1 8.0----29.98- 88.7 89.8----
2024-07-18 02:00 pmESE 7.0 9.9----29.98-0.03 88.5 89.8----
2024-07-18 01:54 pm SE 5.1 12.0----29.99- 88.2 89.8----
2024-07-18 01:48 pmESE 7.0 11.1----29.99- 88.3 89.6----
2024-07-18 01:42 pm E 8.0 13.0----30.00- 88.7 89.4----
2024-07-18 01:36 pm SE 8.0 8.9----30.00- 88.3 89.4----
2024-07-18 01:30 pm SE 7.0 8.0----30.00- 88.0 89.4----
2024-07-18 01:24 pmSSE 6.0 8.0----30.00- 88.2 89.2----
2024-07-18 01:18 pmSSE 5.1 8.0----30.00- 88.0 89.2----
2024-07-18 01:12 pmSSE 7.0 9.9----30.00- 88.0 89.2----
2024-07-18 01:06 pm SE 4.1 7.0----30.00- 88.7 89.4----
2024-07-18 01:00 pm SE 5.1 7.0----30.00+0.00 88.3 89.4----
2024-07-18 12:54 pm SE 5.1 6.0----30.00- 88.0 89.2----
2024-07-18 12:48 pmSSE 2.9 5.1----30.00-- 89.1----
2024-07-18 12:42 pm SE 2.9 5.1----30.00-- 88.9----
2024-07-18 12:36 pm SE 2.9 5.1----30.01-- 88.7----
2024-07-18 12:30 pmESE 2.9 5.1----30.01- 87.6 88.7----
2024-07-18 12:24 pmESE 4.1 5.1----30.01- 87.3 89.1----
2024-07-18 12:18 pmESE 4.1 6.0----30.01- 86.9 89.2----
2024-07-18 12:12 pm SE 4.1 5.1----30.01- 86.4 89.2----
2024-07-18 12:06 pmESE 4.1 6.0----30.01- 86.2 88.7----
2024-07-18 12:00 pmESE 5.1 7.0----30.02+0.02 85.8 88.5----
2024-07-18 11:54 amESE 5.1 6.0----30.02- 85.6 88.3----
2024-07-18 11:48 amESE 4.1 6.0----30.02- 85.3 88.3----
2024-07-18 11:42 am SE 4.1 6.0----30.01- 84.9 88.2----
2024-07-18 11:36 am SE 5.1 6.0----30.02- 84.7 87.8----
2024-07-18 11:30 amESE 6.0 6.0----30.02- 84.7 87.8----
2024-07-18 11:24 am SE 5.1 7.0----30.02- 84.4 87.8----
2024-07-18 11:18 am SE 5.1 7.0----30.02- 84.2 87.8----
2024-07-18 11:12 am SE 6.0 7.0----30.02- 83.8 87.6----
2024-07-18 11:06 am SE 5.1 7.0----30.02- 84.0 87.6----
2024-07-18 11:00 amESE 6.0 7.0----30.01+0.04 83.7 87.6----
2024-07-18 10:54 am SE 6.0 7.0----30.01- 83.5 87.6----
2024-07-18 10:48 amESE 6.0 7.0----30.01- 83.5 87.4----
2024-07-18 10:42 am SE 6.0 8.0----30.01- 83.3 87.3----
2024-07-18 10:36 amESE 6.0 7.0----30.01- 83.1 87.3----
2024-07-18 10:30 amESE 5.1 6.0----30.01- 82.9 87.3----
2024-07-18 10:24 amESE 5.1 6.0----30.01- 82.8 87.1----
2024-07-18 10:18 am SE 5.1 6.0----30.01- 82.8 86.7----
2024-07-18 10:12 amESE 5.1 6.0----30.01- 82.8 86.9----
2024-07-18 10:06 am SE 5.1 6.0----30.01- 82.8 86.7----
2024-07-18 10:00 am SE 4.1 5.1----30.01+0.05 82.8 86.5----
2024-07-18 09:54 am SE 4.1 5.1----30.01- 82.8 86.5----
2024-07-18 09:48 am S 4.1 6.0----30.01- 82.6 86.4----
2024-07-18 09:42 am SE 4.1 5.1----30.00- 82.4 86.2----
2024-07-18 09:36 amSSE 4.1 5.1----30.00- 82.2 86.5----
2024-07-18 09:30 am S 2.9 4.1----29.99- 82.0 86.5----
2024-07-18 09:24 amSSE 2.9 2.9----30.00- 81.9 86.4----
2024-07-18 09:18 am S 1.9 2.9----29.99- 81.7 86.4----
2024-07-18 09:12 am SE 1.9 2.9----29.99- 81.9 86.4----
2024-07-18 09:06 am SE 2.9 2.9----30.00- 81.9 86.4----
2024-07-18 09:00 amESE 1.9 2.9----30.00+0.06 82.0 86.4----
2024-07-18 08:54 amESE 1.0 1.9----30.00- 82.2 86.4----
2024-07-18 08:48 am- 0.0 1.9----29.99- 82.0 86.4----
2024-07-18 08:42 am- 0.0 1.0----30.00- 82.0 86.4----
2024-07-18 08:36 am- 0.0 1.0----29.99- 82.0 86.2----
2024-07-18 08:30 amESE 1.0 1.0----29.99- 82.0 86.2----
2024-07-18 08:24 am- 0.0 1.0----29.99- 82.4 86.2----
2024-07-18 08:18 am- 0.0 1.0----29.99- 81.9 86.4----
2024-07-18 08:12 am- 0.0 1.0----29.98- 81.5 86.2----
2024-07-18 08:06 am- 0.0 1.0----29.98- 81.3 86.2----
2024-07-18 08:00 am- 0.0 1.0----29.98+0.02 82.0 86.4----
2024-07-18 07:54 am- 0.0 0.0----29.98- 82.2 86.4----
2024-07-18 07:48 am- 0.0 0.0----29.97- 81.9 86.4----
2024-07-18 07:42 am- 0.0 1.0----29.97- 80.6 86.5----
2024-07-18 07:36 am SW 1.0 2.9----29.97- 80.1 86.5----
2024-07-18 07:30 amSSW 1.9 2.9----29.97- 80.2 86.5----
2024-07-18 07:24 amSSW 1.9 2.9----29.96- 80.1 86.7----
2024-07-18 07:18 amSSW 2.9 4.1----29.96- 79.9 86.7----
2024-07-18 07:12 amSSW 1.9 2.9----29.96- 79.9 86.7----
2024-07-18 07:06 amSSW 2.9 2.9----29.96- 79.7 86.9----
2024-07-18 07:00 amSSW 1.9 2.9----29.96+0.00 79.5 86.9----
2024-07-18 06:54 amSSW 1.9 4.1----29.96- 79.5 86.9----
2024-07-18 06:48 amSSW 2.9 5.1----29.95-- 86.9----
2024-07-18 06:42 amSSW 4.1 5.1----29.95-- 86.9----
2024-07-18 06:36 amSSW 4.1 4.1----29.95-- 86.7----
2024-07-18 06:30 amSSW 4.1 5.1----29.95- 79.9 86.7----
2024-07-18 06:24 amSSW 4.1 5.1----29.95- 79.7 86.9----
2024-07-18 06:18 amSSW 4.1 5.1----29.95- 79.7 86.5----
2024-07-18 06:12 amSSW 5.1 5.1----29.95- 79.9 86.5----
2024-07-18 06:06 amSSW 4.1 5.1----29.94- 79.7 86.5----
2024-07-18 06:00 amSSW 4.1 5.1----29.94+0.00 79.7 86.5----
2024-07-18 05:54 amSSW 5.1 6.0----29.94- 79.5 86.7----
2024-07-18 05:48 amSSW 6.0 7.0----29.94- 79.5 86.5----
2024-07-18 05:42 amSSW 6.0 7.0----29.94- 79.5 86.5----
2024-07-18 05:36 amSSW 5.1 7.0----29.94- 79.5 86.5----
2024-07-18 05:30 amSSW 5.1 6.0----29.94- 79.5 86.4----
2024-07-18 05:24 amSSW 6.0 7.0----29.95- 79.5 86.4----
2024-07-18 05:18 amSSW 5.1 7.0----29.95- 79.5 86.5----
2024-07-18 05:12 amSSW 5.1 6.0----29.95- 79.5 86.7----
2024-07-18 05:06 am SW 5.1 5.1----29.95- 79.3 86.9----
2024-07-18 05:00 amWSW 1.9 2.9----29.96+0.00 79.3 86.9----
2024-07-18 04:54 amWSW 1.9 2.9----29.96- 79.3 86.9----
2024-07-18 04:48 am W 1.9 2.9----29.96- 79.3 86.9----
2024-07-18 04:42 am W 1.9 2.9----29.96- 79.3 86.7----
2024-07-18 04:36 amWSW 1.9 2.9----29.96- 79.5 86.7----
2024-07-18 04:30 amWSW 1.9 2.9----29.96- 79.5 86.7----
2024-07-18 04:24 amWSW 1.9 2.9----29.96- 79.7 86.7----
2024-07-18 04:18 amWSW 1.9 2.9----29.96- 79.7 86.9----
2024-07-18 04:12 amWSW 2.9 4.1----29.96- 79.7 86.7----
2024-07-18 04:06 am SW 2.9 4.1----29.96- 79.7 86.7----
2024-07-18 04:00 am SW 2.9 4.1----29.96-0.01 79.7 86.5----
2024-07-18 03:54 am SW 2.9 5.1----29.96- 79.9 86.4----
2024-07-18 03:48 amSSW 4.1 5.1----29.95-- 86.2----
2024-07-18 03:42 amSSW 4.1 5.1----29.95-- 86.2----
2024-07-18 03:36 amSSW 5.1 7.0----29.95-- 86.2----
2024-07-18 03:30 amSSW 6.0 7.0----29.95- 80.4 86.5----
2024-07-18 03:24 amSSW 7.0 8.0----29.95- 80.6 86.7----
2024-07-18 03:18 amSSW 7.0 8.9----29.95- 80.8 86.7----
2024-07-18 03:12 am S 8.0 9.9----29.95- 81.1 87.1----
2024-07-18 03:06 am S 8.9 11.1----29.95- 81.5 87.1----
2024-07-18 03:00 am S 8.0 9.9----29.95-0.03 81.3 87.3----
2024-07-18 02:54 am S 8.9 12.0----29.95- 81.1 87.3----
2024-07-18 02:48 am S 8.9 11.1----29.95- 81.1 87.3----
2024-07-18 02:42 am S 9.9 12.0----29.95- 81.3 87.3----
2024-07-18 02:36 am S 8.9 11.1----29.95- 81.3 87.3----
2024-07-18 02:30 am S 8.9 11.1----29.96- 81.5 87.1----
2024-07-18 02:24 am S 11.1 12.0----29.96- 81.3 86.9----
2024-07-18 02:18 am S 8.9 11.1----29.96- 81.7 86.9----
2024-07-18 02:12 am S 11.1 13.0----29.96- 81.7 87.3----
2024-07-18 02:06 am S 11.1 12.0----29.96- 81.7 87.4----
2024-07-18 02:00 amSSW 11.1 13.0----29.96-0.01 81.9 87.6----
2024-07-18 01:54 am S 12.0 14.0----29.97- 82.0 87.8----
2024-07-18 01:48 am S 12.0 13.0----29.97- 82.2 87.8----
2024-07-18 01:42 am S 11.1 13.0----29.97- 82.4 87.8----
2024-07-18 01:36 am S 12.0 14.0----29.97- 82.6 88.0----
2024-07-18 01:30 am S 12.0 15.0----29.98- 82.9 88.0----
2024-07-18 01:24 am S 13.0 15.0----29.98- 83.1 88.0----
2024-07-18 01:18 am S 12.0 15.0----29.98- 83.3 88.0----
2024-07-18 01:12 am S 13.0 14.0----29.98- 83.5 88.0----
2024-07-18 01:06 am S 12.0 20.0----29.98- 83.8 88.0----
2024-07-18 01:00 am S 15.9 19.0----29.97+0.02 84.7 88.0----
2024-07-18 12:54 am S 17.1 20.0----29.97- 84.9 88.0----
2024-07-18 12:48 am S 17.1 20.0----29.97- 84.6 88.0----
2024-07-18 12:42 am S 17.1 20.0----29.98- 84.6 88.0----
2024-07-18 12:36 am S 18.1 20.0----29.98- 84.6 88.0----
2024-07-18 12:30 am S 17.1 19.0----29.98- 84.6 88.0----
2024-07-18 12:24 am S 17.1 19.0----29.98- 84.6 88.0----
2024-07-18 12:18 amSSE 15.9 19.0----29.98- 84.6 88.0----
2024-07-18 12:12 amSSE 15.9 19.0----29.98- 84.6 88.0----
2024-07-18 12:06 amSSE 15.9 19.0----29.98- 84.6 88.2----
2024-07-18 12:00 amSSE 15.0 17.1----29.98+0.03 84.4 88.2----
2024-07-17 11:54 pmSSE 15.9 17.1----29.97- 84.4 88.2----
2024-07-17 11:48 pmSSE 15.0 15.9----29.97- 84.2 88.2----
2024-07-17 11:42 pmSSE 14.0 17.1----29.97- 84.2 88.3----
2024-07-17 11:36 pmSSE 14.0 15.9----29.97- 84.2 88.3----
2024-07-17 11:30 pmSSE 14.0 15.0----29.97- 84.2 88.3----
2024-07-17 11:24 pmSSE 13.0 15.0----29.98- 84.2 88.3----
2024-07-17 11:18 pm SE 12.0 15.0----29.98- 84.2 88.5----
2024-07-17 11:12 pmSSE 14.0 15.9----29.97- 84.2 88.5----
2024-07-17 11:06 pm SE 13.0 15.9----29.97- 84.2 88.5----
2024-07-17 11:00 pm SE 14.0 15.9----29.97+0.02 84.4 88.5----
2024-07-17 10:54 pmSSE 14.0 15.9----29.97- 84.4 88.7----
2024-07-17 10:48 pmSSE 13.0 15.9----29.97- 84.4 88.7----
2024-07-17 10:42 pmSSE 13.0 15.9----29.97- 84.4 88.7----
2024-07-17 10:36 pmSSE 13.0 15.0----29.96- 84.4 88.7----
2024-07-17 10:30 pmSSE 12.0 14.0----29.96- 84.4 88.7----
2024-07-17 10:24 pmSSE 13.0 15.0----29.96- 84.6 88.9----
2024-07-17 10:18 pmSSE 12.0 15.0----29.96- 84.4 88.9----
2024-07-17 10:12 pmSSE 12.0 14.0----29.96- 84.6 88.9----
2024-07-17 10:06 pmSSE 13.0 15.0----29.96- 84.6 88.9----
2024-07-17 10:00 pm SE 13.0 15.9----29.96+0.03 84.6 89.1----
2024-07-17 09:54 pm SE 13.0 15.0----29.96- 84.7 89.1----
2024-07-17 09:48 pm SE 14.0 15.9----29.95- 84.7 89.1----
2024-07-17 09:42 pm SE 14.0 15.9----29.95- 84.7 89.1----
2024-07-17 09:36 pm SE 14.0 15.9----29.96- 84.9 89.1----
2024-07-17 09:30 pm SE 15.0 17.1----29.96- 84.9 89.1----
2024-07-17 09:24 pm SE 15.0 18.1----29.95- 84.9 89.1----
2024-07-17 09:18 pm SE 15.0 17.1----29.95- 84.9 89.2----
2024-07-17 09:12 pm SE 13.0 17.1----29.95- 84.9 89.2----
2024-07-17 09:06 pm SE 15.0 18.1----29.95- 84.9 89.2----
2024-07-17 09:00 pm SE 15.9 18.1----29.95- 85.1 89.2----
2024-07-17 08:54 pm SE 15.9 18.1----29.94- 85.1 89.2----
2024-07-17 08:48 pm SE 15.9 18.1----29.95- 85.1 89.4----
2024-07-17 08:42 pm SE 15.9 18.1----29.95- 85.1 89.4----
2024-07-17 08:36 pm SE 15.9 19.0----29.95- 85.1 89.4----
2024-07-17 08:30 pm SE 15.9 19.0----29.95- 85.3 89.4----
2024-07-17 08:24 pm SE 14.0 18.1----29.95- 85.3 89.4----
2024-07-17 08:18 pm SE 15.0 18.1----29.96- 85.3 89.4----
2024-07-17 08:12 pm SE 15.0 18.1----29.96- 85.5 89.6----
2024-07-17 08:06 pm SE 15.9 19.0----29.96- 85.5 89.6----
2024-07-17 08:00 pm SE 15.0 17.1----29.96- 85.5 89.6----
2024-07-17 07:54 pmESE 15.0 18.1----29.96- 85.5 89.6----
2024-07-17 07:48 pmESE 14.0 17.1----29.96- 85.6 89.6----
2024-07-17 07:42 pmESE 14.0 17.1----29.96- 85.6 89.4----
2024-07-17 07:36 pmESE 14.0 17.1----29.95- 85.6 89.4----
2024-07-17 07:30 pmESE 15.0 19.0----29.95- 85.8 89.4----
2024-07-17 07:24 pmESE 15.0 17.1----29.94- 85.8 89.4----
2024-07-17 07:18 pm SE 15.9 18.1----29.94- 86.0 89.4----
2024-07-17 07:12 pm SE 15.0 19.0----29.94- 86.0 89.4----
2024-07-17 07:06 pm SE 14.0 15.9----29.93- 86.2 89.4----
2024-07-17 07:00 pm SE 13.0 15.9----29.93+0.02 86.2 89.4----
2024-07-17 06:54 pm SE 14.0 15.9----29.93- 86.2 89.4----